Вернуться в каталог

ONEWEB-0674

АктивенСвязьPO
NORAD 55833·PAYLOAD·🇬🇧 United Kingdom

Запущен Mar 9, 2023 с Cape Canaveral Space Force Station

Loading…

Ближайшие Пролёты (ближайшие 24 часа)

TLE

СвежийSource: CelesTrak SupGP

Эпоха: Sep 14, 2026, 09:53 UTC

1 55833C 23029AP  26257.41199491  .00002031  00000+0  54859-2 0  2575
2 55833  87.8899 271.9193 0002348  93.3653  12.6707 13.14500728    18

Отслеживайте ONEWEB-0674 в реальном времени с AllMySat

Download on the App Store